Location: Janeiro
(34.9957°N, 76.7652°W)
Time: 15:22:26
(UTC+00:00)

ADEOS Rocket - Pass Details

Date: 14 December 2019
Orbit: 858 x 1307 km, 98.7° (Epoch: 20 January)

Event Time Altitude Azimuth Distance (km) Brightness Sun altitude
Exits shadow 23:23:04 15° 119° (ESE) 2,196 4.5 -17.2°
Drops below altitude 10° 23:24:46 10° 135° (SE) 2,555 4.9 -17.5°
Sets 23:28:04 0° 154° (SSE) 3,546 5.8 -18.2°
